www.pogodaiklimat.ru
ПОГОДА в Йокмокке
Время
(UTC), дата
10 6.12
11 6.12
12 6.12
13 6.12
14 6.12
15 6.12
16 6.12
17 6.12
18 6.12
19 6.12
20 6.12
21 6.12
22 6.12
23 6.12
00 7.12
01 7.12
02 7.12
03 7.12
04 7.12
05 7.12
06 7.12
07 7.12
08 7.12
09 7.12
10 7.12
11 7.12
12 7.12
13 7.12
14 7.12
15 7.12
16 7.12
17 7.12
18 7.12
19 7.12
20 7.12
21 7.12
22 7.12
23 7.12
00 8.12
01 8.12
02 8.12
03 8.12
04 8.12
05 8.12
06 8.12
07 8.12
08 8.12
09 8.12
10 8.12
11 8.12
12 8.12
13 8.12
14 8.12
15 8.12
16 8.12
17 8.12
18 8.12
19 8.12
20 8.12
21 8.12
22 8.12
23 8.12
00 9.12
01 9.12
02 9.12
03 9.12
04 9.12
05 9.12
06 9.12
07 9.12
08 9.12
09 9.12
10 9.12
11 9.12
12 9.12
13 9.12
14 9.12
15 9.12
16 9.12
17 9.12
18 9.12
19 9.12
20 9.12
21 9.12
22 9.12
23 9.12
00 10.12
01 10.12
02 10.12
03 10.12
04 10.12
05 10.12
06 10.12
07 10.12
08 10.12
09 10.12
10 10.12
11 10.12
12 10.12
13 10.12
14 10.12
15 10.12
16 10.12
17 10.12
18 10.12
19 10.12
20 10.12
21 10.12
22 10.12
23 10.12
00 11.12
01 11.12
02 11.12
03 11.12
04 11.12
05 11.12
06 11.12
07 11.12
08 11.12
09 11.12
10 11.12
11 11.12
12 11.12
13 11.12
14 11.12
15 11.12
16 11.12
17 11.12
18 11.12
19 11.12
20 11.12
21 11.12
22 11.12
23 11.12
00 12.12
01 12.12
02 12.12
03 12.12
04 12.12
05 12.12
06 12.12
07 12.12
08 12.12
09 12.12
10 12.12
11 12.12
12 12.12
13 12.12
14 12.12
15 12.12
16 12.12
17 12.12
18 12.12
19 12.12
20 12.12
21 12.12
22 12.12
23 12.12
00 13.12
01 13.12
02 13.12
03 13.12
04 13.12
05 13.12
06 13.12
07 13.12
08 13.12
09 13.12
10 13.12
Ветер
(напр.,м/с)
Видим. Явления Облачность Т
(С)
Тd
(С)
f
(%)
Тe
(С)
Тes
(С)
Комфортность P
(гПа)
Po
(гПа)
Тmin
(С)
Tmax
(С)
R
(мм)
R24
(мм)
S
(см)
СВ 1-3
{3}
50 км 9/0
[]
-7.6 -9.8 84 -10 -10 978.4 944.9
штиль 0-1
{2}
50 км 9/0
[]
-7.6 -8.0 97 -8 -8 978.3 944.9
ЮВ 1-2
{2}
50 км 3/0
[]
-9.4 -10.2 94 -12 -12 978.4 944.9
Ю 1-1
{2}
50 км ясно -10.0 -10.7 95 -12 -12 978.7 945.1
ЮВ 1-2
{2}
50 км 9/0
[]
-10.9 -11.5 95 -13 -13 978.5 944.9
ЮВ 1-2
{4}
50 км 9/0
[]
-10.6 -11.3 95 -13 -13 978.5 944.9
ЮВ 2-3
{3}
50 км н/о -8.8 -9.2 97 -13 -13 978.5 945.0
штиль 0-1
{3}
50 км 3/3 1500 м
[]
-9.0 -9.6 95 -10 -10 978.9 945.4
ЮВ 1-2
{2}
50 км 5/0
[]
-8.5 -9.1 95 -11 -11 978.8 945.3 -11.7 -4.8
штиль 0-1
{2}
50 км ясно -10.5 -11.3 94 -11 -11 979.0 945.4
ЮВ 2-2
{2}
50 км 3/0
[]
-10.9 -11.5 95 -15 -15 979.1 945.5
ЮВ 1-3
{3}
50 км 10/0
[]
-10.1 -10.8 95 -12 -12 979.3 945.6
В 1-2
{2}
50 км 9/0
[]
-10.1 -11.0 93 -12 -12 979.1 945.5
ЮВ 2-2
{3}
50 км 8/8 1500 м
[]
-8.2 -8.9 95 -13 -13 979.0 945.5
В 1-2
{3}
50 км ясно -9.6 -10.3 95 -12 -12 979.2 945.6
ЮВ 1-2
{3}
50 км ясно -10.8 -11.7 93 -13 -13 979.5 945.8
штиль 0-1
{2}
50 км ясно -11.3 -12.3 92 -11 -11 979.7 946.0
В 2-3
{3}
50 км ясно -12.3 -13.3 92 -17 -17 979.8 946.0
Ю 2-2
{3}
50 км ясно -11.6 -12.5 93 -16 -16 979.7 946.1
С 1-2
{3}
50 км ясно -13.1 -14.2 91 -15 -15 980.0 946.2
ЮВ 1-2
{2}
50 км ясно -12.4 -13.5 91 -15 -15 980.0 946.3 -13.8 -7.8
С 1-1
{2}
50 км ясно -13.6 -15.1 88 -16 -16 980.3 946.4
ЮВ 2-2
{2}
50 км ясно -12.8 -13.8 92 -17 -17 980.6 946.8
штиль 0-1
{2}
50 км ясно -13.3 -14.5 91 -13 -13 980.7 946.9
ЮВ 1-1
{2}
50 км ясно -11.3 -12.1 94 -14 -14 980.1 946.4
ЮВ 1-2
{2}
45 км ясно -12.2 -13.3 91 -14 -14 980.1 946.3
ЮВ 2-2
{3}
50 км ясно -11.6 -12.5 93 -16 -16 979.6 945.9
Ю 1-1
{2}
50 км ясно -13.0 -14.2 91 -15 -15 979.4 945.6
СВ 1-2
{3}
45 км ясно -13.8 -15.3 88 -16 -16 979.4 945.5
Ю 1-2
{2}
50 км ясно -11.1 -11.8 95 -13 -13 979.0 945.4
Ю 1-2
{3}
50 км 5/0 2000 м
[]
-10.5 -11.2 95 -13 -13 978.6 945.0
штиль 0-1
{3}
50 км ясно -11.6 -12.7 92 -12 -12 978.8 945.1
СВ 1-1
{1}
50 км ясно -12.6 -13.8 91 -15 -15 978.5 944.8 -15.3 -9.1
штиль 0-1
{1}
50 км ясно -12.8 -14.0 91 -13 -13 978.7 944.9
штиль 0-1
{1}
50 км 3/3 660 м
[]
-14.2 -15.6 89 -14 -14 979.3 945.4
штиль 0
{1}
50 км ясно -14.0 -15.4 89 -14 -14 979.4 945.5
З 1-1
{1}
50 км ясно -13.6 -14.8 91 -16 -16 979.4 945.6
З 1-1
{2}
50 км 1/1 1500 м
[]
-12.9 -14.0 91 -15 -15 980.0 946.2
СЗ 1-1
{1}
35 км слаб. снег 10/10 870 м
[]
-12.0 -13.1 91 -14 -14 980.2 946.4
штиль 0-1
{2}
50 км в посл. час снег {ливн. осадки, морось} 10/10 1110 м
[]
-10.7 -11.7 92 -11 -11 980.5 946.8
СЗ 1-2
{2}
50 км {ливн. осадки, снег} 10/10 1000 м
[]
-9.7 -10.6 93 -12 -12 980.7 947.0
З 2-2
{2}
50 км {ливн. осадки, снег} 3/3 660 м
[]
-9.7 -10.6 93 -14 -14 980.9 947.2
З 2-3
{3}
50 км {ливн. осадки, снег} 10/10 660 м
[]
-9.8 -10.6 94 -14 -14 980.9 947.3
З 2-3
{3}
50 км {ливн. осадки, снег} 10/10 800 м
[]
-8.8 -9.7 93 -13 -13 981.0 947.4
З 2-2
{3}
50 км {ливн. осадки, снег} 10/10 900 м
[]
-9.1 -9.9 94 -14 -14 981.2 947.6 -14.9 -8.3
З 2-3
{3}
50 км 10/10 1000 м
[]
-8.0 -9.0 92 -13 -13 981.3 947.7
З 1-2
{2}
50 км 5/5 1170 м
[]
-9.9 -10.9 92 -12 -12 981.4 947.7
З 1-1
{2}
50 км 3/3 900 м
[]
-11.6 -12.7 92 -14 -14 981.3 947.5
ЮВ 1-1
{1}
50 км 3/3 840 м
[]
-11.1 -12.0 93 -13 -13 981.0 947.3
З 1-1
{2}
50 км ясно -12.7 -13.9 91 -15 -15 981.2 947.3
С 1-1
{1}
50 км 5/5 1000 м
[]
-12.7 -13.9 91 -15 -15 981.0 947.1
С 1-2
{2}
50 км 4/4 1440 м
[]
-13.1 -14.4 90 -15 -15 980.9 947.1
штиль 0-1
{2}
50 км 4/4 700 м
[]
-13.4 -14.6 91 -13 -13 980.9 947.1
СЗ 1-2
{2}
28 км слаб. снег ?/? -12.6 -13.8 91 -15 -15 980.1 946.3
штиль 0-1
{1}
45 км в посл. час снег {ливн. осадки} 6/6 1500 м
[]
-12.1 -13.3 91 -12 -12 979.5 945.7
штиль 0-1
{3}
13 км слаб. ливневой снег 10/10 500 м
[]
-10.6 -11.6 92 -11 -11 979.5 945.8
штиль 0-1
{1}
3600 м слаб. ливневой снег ?/? -10.3 -11.2 93 -11 -11 979.2 945.6 -14.2 -8.0
штиль 0-1
{1}
5000 м слаб. снег 10/10 90 м
[]
-10.0 -10.9 93 -10 -10 978.7 945.1 0.1
штиль 0-1
{2}
5000 м в посл. час снег {ливн. осадки} 10/10 180 м
[]
-9.4 -10.3 93 -10 -10 978.5 944.9
штиль 0-1
{2}
30 км слаб. ливневой снег 10/10 300 м
[]
-9.4 -10.2 94 -10 -10 977.7 944.2
З 1-1
{1}
50 км в посл. час снег {ливн. осадки} 10/10 300 м
[]
-9.1 -9.8 95 -12 -12 977.3 943.8
З 1-1
{1}
4200 м дымка {ливн. осадки, снег} 10/10 180 м
[]
-8.3 -9.0 95 -11 -11 976.8 943.4
С 1-1
{1}
18 км слаб. ливневой снег 10/10 180 м
[]
-8.2 -8.8 95 -11 -11 976.4 943.0
С 1-1
{1}
11 км слаб. ливневой снег {морось} 10/10 210 м
[]
-7.3 -7.9 95 -10 -10 976.2 942.8
С 1-1
{2}
2000 м слаб. снег {морось} ?/? -7.0 -7.7 95 -10 -10 976.0 942.7 0.2
С 1-2
{2}
2600 м слаб. снег {морось} ?/? -6.6 -7.1 96 -9 -9 975.7 942.5 0.3
С 2-3
{3}
2700 м слаб. снег {морось} ?/? -6.4 -6.9 96 -11 -11 975.6 942.4 0.1
С 2-3
{3}
1300 м слаб. снег {морось} ?/? -6.4 -6.9 96 -11 -11 975.9 942.7 0.4
С 2-4
{4}
3900 м слаб. снег {морось} ?/? -6.6 -7.3 95 -11 -11 976.6 943.3 -10.5 -6.3 0.2
СЗ 3-4
{5}
5000 м слаб. снег ?/? -6.9 -7.6 95 -13 -13 977.2 943.9 0.1
СЗ 3-4
{5}
1200 м слаб. снег ?/? -7.2 -7.8 95 -13 -13 978.2 944.8 0.7
СЗ 3-5
{5}
1800 м слаб. снег ?/? -7.2 -7.9 95 -13 -13 979.0 945.6 0.9
СЗ 3-5
{5}
н/о {снег} ?/? -7.2 -8.0 94 -13 -13 979.9 946.4 0.7
СЗ 3-4
{5}
3400 м слаб. снег ?/? -7.2 -8.0 94 -13 -13 980.7 947.2 0.2
З 3-4
{4}
45 км снежные кристаллы 10/10 720 м
[]
-7.4 -8.2 94 -13 -13 981.7 948.2
СЗ 3-5
{5}
40 км снежные зёрна {ливн. осадки, морось} 9/9 840 м
[]
-7.6 -8.7 92 -13 -13 982.8 949.2
СЗ 4-5
{5}
50 км в посл. час снег {ливн. осадки, морось} 10/10 1020 м
[]
-7.5 -8.6 92 -14 -14 983.8 950.2
СЗ 4-5
{6}
50 км {ливн. осадки, снег} 8/8 1140 м
[]
-7.3 -8.8 89 -14 -14 984.8 951.2
З 3-4
{5}
50 км {ливн. осадки, снег} ?/? -7.3 -8.9 88 -13 -13 986.1 952.4
СЗ 3-4
{4}
50 км {ливн. осадки, снег} ясно -7.2 -8.4 91 -13 -13 987.3 953.6
СЗ 2-3
{4}
50 км {ливн. осадки, снег} ясно -9.4 -10.3 93 -14 -14 988.5 954.6 -9.9 -6.6
З 3-3
{3}
50 км ясно -9.2 -10.1 93 -15 -15 989.4 955.5
З 2-3
{3}
50 км ясно -9.8 -10.6 94 -14 -14 990.6 956.6
З 2-2
{3}
50 км ясно -9.9 -10.6 95 -14 -14 992.2 958.1
З 3-4
{4}
50 км 6/0
[]
-11.6 -12.4 94 -18 -18 993.7 959.6
СЗ 2-3
{4}
50 км ясно -11.8 -12.8 92 -16 -16 995.0 960.7
СЗ 3-4
{4}
50 км ясно -11.9 -12.8 93 -18 -18 996.3 962.0
СЗ 3-5
{5}
50 км ясно -11.1 -12.4 90 -17 -17 997.7 963.4
СЗ 1-2
{4}
50 км ясно -13.1 -14.2 91 -15 -15 999.1 964.6
штиль 0-2
{3}
50 км ясно -14.1 -15.4 90 -14 -14 1000.4 965.8
штиль 0-1
{1}
50 км ясно -14.6 -16.1 88 -15 -15 1001.5 966.8
Ю 1-1
{2}
50 км 1/1 1500 м
[]
-15.5 -17.0 88 -18 -18 1002.5 967.7
СЗ 1-1
{2}
50 км ясно -15.8 -17.3 88 -18 -18 1003.5 968.7 -17.2 -9.0
З 2-2
{2}
50 км ясно -17.0 -18.5 88 -22 -22 1004.4 969.6
штиль 0-2
{2}
50 км ясно -17.9 -19.9 84 -18 -18 1005.6 970.5
З 2-3
{3}
50 км ясно -15.9 -17.4 88 -21 -21 1006.2 971.3
З 1-2
{2}
27 км снежные кристаллы ясно -17.2 -19.0 86 -20 -20 1007.3 972.2
З 1-2
{3}
50 км в посл. час снег {ливн. осадки} ясно -17.4 -19.2 86 -20 -20 1007.7 972.6
З 1-2
{2}
50 км {ливн. осадки, снег} ясно -19.3 -21.0 86 -22 -22 1008.1 972.9
З 1-2
{2}
50 км ясно -19.6 -21.4 86 -23 -23 1008.4 973.2
З 1-2
{3}
5000 м слаб. снег ясно -21.3 -23.1 85 -24 -24 1009.2 973.9
З 1-2
{2}
50 км в посл. час снег {ливн. осадки} ясно -21.1 -23.1 84 -24 -24 1009.4 974.1
ЮЗ 1-1
{2}
45 км слаб. ливневой снег ясно -21.2 -23.4 82 -24 -24 1009.4 974.0
З 1-1
{2}
40 км слаб. ливневой снег ясно -23.4 -25.7 81 -27 -27 1009.2 973.7
штиль 0-1
{2}
50 км {ливн. осадки, снег} ясно -22.7 -25.0 81 -23 -23 1008.3 972.9 -24.3 -14.8
ЮЗ 1-1
{1}
50 км ясно -24.3 -26.9 79 -28 -28 1008.3 972.8
штиль 0
{1}
45 км ясно -24.1 -26.6 80 -24 -24 1007.8 972.3
штиль 0-1
{1}
45 км ясно -24.5 -27.1 79 -25 -25 1007.1 971.6
ЮВ 2-3
{3}
30 км слаб. снег {осадки} ясно -19.4 -21.2 86 -25 -25 1005.5 970.4
В 1-2
{3}
40 км слаб. ливневой снег {осадки} ясно -16.8 -18.5 87 -20 -20 1004.4 969.5
ЮВ 1-2
{3}
50 км в посл. час зёрна {ливн. осадки} ясно -15.5 -17.1 87 -18 -18 1003.3 968.5
В 3-4
{4}
2400 м слаб. ливневой снег {морось} ?/? -15.1 -16.7 88 -22 -22 1001.9 967.2 0.3
ЮВ 3-4
{5}
1600 м слаб. снег {морось} ?/? -14.0 -15.4 89 -20 -20 999.4 964.9 0.7
ЮВ 3-4
{5}
1800 м слаб. снег {морось} ?/? -12.0 -13.2 91 -18 -18 996.9 962.6 0.5
ЮВ 4-5
{5}
1000 м слаб. снег {морось} ?/? -8.9 -9.8 93 -16 -16 994.6 960.5 0.8
ЮВ 5-7
{7}
900 м слаб. снег {морось} ?/? -5.4 -5.9 96 -13 -13 992.6 958.9 1
ЮВ 5-7
{7}
1800 м слаб. снег {морось} ?/? -4.0 -4.4 97 -11 -11 991.1 957.5 -24.7 -3.9 0.7
ЮВ 5-7
{7}
3100 м слаб. снег ?/? -2.8 -3.2 97 -10 -10 989.6 956.1 0.4
ЮВ 5-7
{7}
1700 м слаб. снег ?/? -2.5 -2.9 97 -9 -9 988.5 955.1 0.5
ЮВ 5-7
{8}
2000 м слаб. снег ?/? -2.4 -2.8 97 -9 -9 987.6 954.2 0.3
ЮВ 5-7
{7}
7000 м снежные зёрна 10/10 270 м
[]
-2.0 -2.5 96 -9 -9 986.6 953.3 0.1
Ю 4-7
{7}
1900 м слаб. снег ?/? -1.7 -2.2 96 -8 -8 986.3 953.0 0.3
ЮВ 4-5
{7}
10 км слаб. снег 8/8 240 м
[]
-1.5 -1.9 97 -8 -8 985.7 952.4 0.1
Ю 4-5
{5}
18 км слаб. снег ?/? -1.2 -1.6 97 -7 -7 985.7 952.5 0.1
Ю 2-3
{5}
1400 м слаб. снег ?/? -1.2 -1.4 99 -5 -5 986.1 952.8 0.5
ЮВ 1-2
{3}
23 км слаб. снег 4/4 420 м
[]
-1.1 -1.2 99 -3 -3 986.6 953.3 0.7
штиль 0-2
{2}
50 км в посл. час снег 8/8 480 м
[]
-1.2 -1.5 98 -3 -3 987.5 954.2
Ю 1-3
{3}
50 км {снег} ясно -3.3 -3.6 98 -6 -6 988.6 955.2
В 1-2
{2}
35 км дымка {снег} ясно -5.0 -5.3 98 -8 -8 990.2 956.6 -5.6 -0.7
ЮВ 2-3
{3}
50 км ясно -5.7 -6.1 97 -10 -10 991.0 957.3
ЮВ 2-3
{3}
35 км ясно -6.8 -7.3 96 -11 -11 992.1 958.2
ЮВ 1-2
{3}
50 км ясно -9.4 -10.2 94 -12 -12 992.8 958.8
Ю 1-2
{2}
50 км 1/1 400 м
[]
-9.7 -10.4 95 -12 -12 993.5 959.5
ЮВ 1-2
{3}
50 км ясно -11.2 -12.2 92 -13 -13 993.9 959.7
Ю 1-2
{3}
50 км 10/10 240 м
[]
-9.5 -10.1 95 -12 -12 994.0 960.0
ЮВ 3-4
{4}
5000 м слаб. снег 10/10 330 м
[]
-5.5 -5.8 98 -11 -11 993.8 960.0
ЮВ 2-4
{4}
50 км в посл. час зёрна {ливн. осадки} 10/10 300 м
[]
-3.2 -3.4 99 -8 -8 993.6 960.0 0.1
ЮВ 2-3
{3}
50 км {ливн. осадки, снег} 10/10 360 м
[]
-2.9 -3.1 99 -7 -7 993.4 959.8
ЮВ 2-2
{3}
4900 м слаб. снег {морось} 10/10 330 м
[]
-2.6 -2.8 99 -7 -7 993.5 959.9
ЮВ 2-4
{4}
30 км в посл. час снег {ливн. осадки, морось} 10/10 600 м
[]
-2.2 -2.3 99 -6 -6 993.1 959.5
ЮВ 2-3
{4}
2800 м слаб. снег {морось} 10/10 120 м
[]
-2.3 -2.4 99 -7 -7 993.5 959.9 -12.2 -2.1 0.1
ЮВ 3-4
{4}
27 км слаб. снег 10/10 120 м
[]
-2.2 -2.3 99 -8 -8 993.4 959.8
ЮВ 3-4
{5}
12 км слаб. снег 10/10 90 м
[]
-1.9 -2.1 99 -7 -7 993.8 960.2 0.1
н/о {снег} н/о -1.8 -1.9 99 993.5 960.0
ЮВ 3-4
{5}
30 км в посл. час снег 10/10 90 м
[]
-1.6 -1.6 100 -7 -7 993.4 959.9
ЮВ 3-4
{4}
30 км {ливн. осадки, снег} 10/10 90 м
[]
-1.3 -1.3 100 -7 -7 993.3 959.8
ЮВ 3-4
{5}
40 км слаб. ливневой снег 10/10 120 м
[]
-1.1 -1.1 100 -6 -6 993.1 959.6
ЮВ 4-5
{5}
25 км в посл. час зёрна {ливн. осадки} 10/10 120 м
[]
-1.1 -1.1 100 -7 -7 993.0 959.5
ЮВ 4-5
{5}
2000 м слаб. снег {морось} 10/10 120 м
[]
-1.0 -1.0 100 -7 -7 993.1 959.6 0.2
ЮВ 4-5
{5}
3700 м слаб. снег {морось} 10/10 90 м
[]
-0.9 -0.9 100 -7 -7 992.9 959.4 0.1
ЮВ 4-5
{5}
7000 м слаб. снег {морось} 10/10 120 м
[]
-0.6 -0.6 100 -6 -6 992.6 959.2 0.1
ЮВ 3-4
{6}
8000 м слаб. снег {морось} 10/10 120 м
[]
-0.7 -0.7 100 -6 -6 992.3 958.9
ЮВ 4-4
{5}
2100 м слаб. снег {морось} 10/10 90 м
[]
-0.6 -0.6 100 -6 -6 992.2 958.8 -2.3 -0.6 0.2
ЮВ 4-5
{5}
3200 м слаб. снег ?/? -0.6 -0.6 100 -6 -6 992.0 958.6 0.2
ЮВ 4-5
{5}
16 км слаб. ливневой снег 10/10 120 м
[]
-0.5 -0.5 100 -6 -6 991.9 958.5
ЮВ 3-4
{5}
45 км в посл. час зёрна {ливн. осадки} 10/10 150 м
[]
-0.5 -0.5 100 -6 -6 991.8 958.4
ЮВ 4-5
{6}
5000 м снежные зёрна {ливн. осадки, морось} 10/10 120 м
[]
-0.5 -0.5 100 -6 -6 991.5 958.1
ЮВ 4-5
{6}
16 км в посл. час снег {ливн. осадки, морось} 10/10 60 м
[]
-0.4 -0.4 100 -6 -6 991.5 958.1
ЮВ 3-3
{4}
26 км {ливн. осадки, снег} 10/10 60 м
[]
-0.2 -0.2 100 -5 -5 991.2 957.8
ЮВ 4-5
{5}
20 км 10/10 60 м
[]
-0.4 -0.4 100 -6 -6 990.8 957.4
ЮВ 3-4
{6}
21 км 10/10 90 м
[]
-0.3 -0.3 100 -5 -5 990.5 957.2
ЮВ 2-3
{4}
40 км 10/10 120 м
[]
-0.3 -0.3 100 -4 -4 990.7 957.3
ЮВ 3-4
{4}
24 км 10/10 90 м
[]
-0.3 -0.3 100 -5 -5 990.4 957.1
ЮВ 3-3
{4}
23 км 10/10 90 м
[]
-0.4 -0.4 100 -5 -5 990.6 957.2
ЮВ 3-3
{3}
20 км слаб. снег {осадки} 10/10 90 м
[]
-0.4 -0.4 100 -5 -5 991.1 957.7 -0.7 -0.2
ЮВ 3-3
{4}
16 км слаб. снег 10/10 60 м
[]
-0.7 -0.7 100 -6 -6 991.3 957.9
ЮВ 2-4
{4}
23 км слаб. снег 10/10 120 м
[]
-0.7 -0.7 100 -5 -5 992.0 958.6
ЮВ 3-3
{3}
7000 м слаб. снег 6/6 90 м
[]
-1.8 -1.8 100 -7 -7 992.5 959.0 0.1
ЮВ 2-3
{3}
35 км в посл. час снег 8/8 60 м
[]
-2.1 -2.1 100 -6 -6 993.1 959.5
Местоположение метеостанции Йокмокк (Швеция): широта 66.48 долгота 20.17 высота над уровнем моря 275 м.
В архиве по умолчанию представлена погода в Йокмокке за последнюю неделю. Архивные данные за месяц целиком и за предыдущие месяцы, начиная с января 2011 года, Вы можете получить, выбрав интересующий диапазон дат из раскрывающегося списка и нажав кнопку "Найти!".
*Определитесь, кто Вы:
Внимание! Время в таблицах - всемирное. Для получения местного времени необходимо прибавить поправку, которая равна 1 ч.
Смотрите также архив погоды в соседних городах и на ближайших метеорологических станциях:
Партнеры нашего сайта:      
Пояснения к столбцам:
  • Ветер - указаны скорость ветра в м/с - средняя за 10 мин, порывы в срок и между сроками (в фигурных скобках) и направление, откуда дует ветер: С - северный,
  • СВ - северо-восточный, В - восточный, ЮВ - юго-восточный, Ю - южный, ЮЗ - юго-западный, З - западный, СЗ - северо-западный.
  • Видимость - горизонтальная дальность видимости в метрах или километрах. При видимости от 1 до 10 км при отсутствии осадков обычно наблюдается дымка, при ухудшении видимости до 1 км и менее - туман. В сухую погоду видимость может ухудшаться дымом, пылью или мглою.
  • Явления - указаны атмосферные явления, наблюдавшиеся в срок или в последний час перед сроком; фигурными скобками обозначены явления, наблюдавшиеся между сроками (за 1-3 часа до срока); квадратными скобками обозначены град или гололедные отложения с указанием их диаметра в мм.
  • Облачность - указаны через наклонную черту общая и нижняя облачность в баллах и высота нижней границы облаков в метрах; квадратными скобками обозначены формы облаков: Ci - перистые, Cs - перисто-слоистые, Cc - перисто-кучевые, Ac - высококучевые, As - высокослоистые, Sc - слоисто-кучевые, Ns - слоисто-дождевые, Cu - кучевые, Cb - кучево-дождевые. Подробнее классификацию облаков см. в Атласе облаков (PDF).
  • T - Температура воздуха - температура, измеренная на высоте 2 м над землей.
  • Td - Температура точки росы - температура, при понижении до которой содержащийся в воздухе водяной пар достигнет насыщения.
  • f - Относительная влажность воздуха - влажноcть воздуха, измеренная на высоте 2 м над землей.
  • Te - Эффективная температура - температура, которую ощущает одетый по сезону человек в тени. Характеристика душности погоды. При расчете учитывается влияние влажности воздуха и скорости ветра на теплоощущения человека.
  • Tes - Эффективная температура на солнце - температура, которую ощущает человек, с поправкой на солнечный нагрев. Характеристика знойности погоды. Зависит от высоты солнца над горизонтом, облачности и скорости ветра. Ночью, в пасмурную погоду, а также при ветре 12 м/с и более поправка равна нулю.
  • P - Атмосферное давление - приведенное к уровню моря атмосферное давление.
  • Po - Атмосферное давление - измеренное на уровне метеостанции атмосферное давление.
  • Tmin - Минимальная температура - минимум температуры воздуха на высоте 2 м над землей.
  • Tmax - Максимальная температура - максимум температуры воздуха на высоте 2 м над землей.
  • R - Количество осадков - Количество выпавших осадков за период времени, мм. При наведении курсора мыши на число - период времени, за который выпало указанное количество осадков.
  • R24 - Количество осадков - Количество выпавших осадков за 24 часа, мм.
  • S - Снежный покров - Высота снежного покрова, см. При наведении курсора мыши на число - состояние снежного покрова и степень покрытия местности в баллах.